Temperature
5 5 5 5 4 4 4 4 5 5 5 5 5 5 5 5 5 5 5 5 5 5 5 5 5 5 6 6 6 5 5 5 5 5 5 6 6 6 6 7 7 7 7
5 4 4 4 4 4 4 4 4 4 4 4 5 5 5 5 4 4 4 4 5 4 4 4 4 4 4 4 5 5 5 4 4 4 5 5 5 5 5 6 6 6 6
4 4 4 4 4 4 4 4 4 4 4 4 4 4 4 4 4 4 4 4 4 4 4 4 4 4 4 3 3 3 3 3 3 3 3 4 4 4 4 4 5 5 5
4 4 4 4 3 3 3 3 3 3 3 3 3 3 3 3 3 3 3 3 3 3 3 3 3 3 3 3 3 3 2 2 2 2 2 2 3 3 3 3 4 4 4
4 4 4 3 3 3 3 3 3 3 3 3 3 3 3 3 2 2 2 2 2 2 2 2 2 2 2 2 2 2 2 2 1 1 1 1 1 1 1 2 2 2 3
4 4 3 3 3 3 3 2 2 2 2 2 2 2 2 2 2 1 1 1 1 1 1 1 1 1 1 1 1 0 0 0 0 0 0 0 0 -0 0 0 -0 0 1
4 3 3 3 3 2 2 2 2 2 2 2 1 1 1 1 1 1 1 1 0 0 0 0 0 0 0 -0 -0 -0 -0 -0 -1 -1 -1 -1 -1 -1 -1 -1 -1 -1 -1
3 3 3 3 2 2 2 2 2 1 1 1 1 1 0 0 -0 -0 -0 -0 -0 -0 -1 -0 -1 -1 -1 -1 -1 -1 -1 -1 -1 -1 -2 -2 -2 -2 -2 -2 -2 -2 -1
4 3 3 2 2 2 2 1 1 1 1 1 0 0 -0 -0 -1 -1 -1 -1 -1 -1 -1 -1 -2 -2 -2 -2 -2 -2 -2 -2 -2 -2 -3 -3 -3 -3 -3 -3 -3 -3 -2
3 3 3 2 2 2 1 1 1 1 0 0 -0 -1 -1 -1 -1 -2 -2 -2 -2 -2 -2 -2 -3 -3 -3 -3 -3 -3 -3 -3 -3 -3 -3 -3 -3 -3 -3 -3 -4 -4 -4
3 3 2 2 2 1 1 1 0 0 -0 -0 -1 -1 -1 -2 -2 -2 -3 -3 -3 -3 -3 -3 -3 -4 -4 -4 -4 -4 -4 -4 -4 -4 -4 -3 -3 -4 -4 -4 -4 -4 -5
3 2 2 2 1 1 0 0 -0 -0 -1 -1 -1 -2 -2 -2 -3 -3 -4 -4 -4 -4 -4 -4 -4 -4 -4 -5 -4 -5 -5 -5 -5 -5 -4 -4 -4 -4 -4 -5 -5 -5 -5
3 2 2 1 1 0 0 -0 -0 -1 -1 -1 -2 -2 -2 -3 -3 -4 -4 -4 -5 -5 -5 -5 -5 -5 -5 -5 -5 -5 -5 -5 -5 -6 -6 -6 -6 -6 -6 -5 -5 -5 -5
2 2 1 1 0 -0 -0 -1 -1 -1 -2 -2 -2 -3 -3 -3 -4 -4 -4 -5 -5 -5 -5 -5 -5 -5 -5 -5 -5 -5 -6 -6 -6 -6 -6 -6 -6 -6 -6 -6 -6 -6 -5
2 1 1 0 0 -0 -1 -1 -1 -2 -2 -3 -3 -3 -3 -4 -4 -5 -5 -5 -6 -6 -6 -6 -6 -6 -6 -6 -6 -6 -6 -6 -7 -7 -7 -7 -7 -7 -7 -7 -7 -7 -7
2 1 1 0 -0 -1 -1 -1 -2 -2 -3 -3 -3 -4 -4 -4 -5 -5 -6 -6 -6 -6 -6 -6 -6 -6 -7 -7 -7 -7 -7 -7 -7 -8 -8 -8 -8 -8 -7 -7 -7 -7 -7
1 1 0 -0 -1 -1 -1 -2 -2 -3 -3 -3 -4 -4 -4 -5 -5 -5 -6 -6 -6 -6 -6 -7 -7 -7 -7 -7 -8 -8 -8 -8 -8 -8 -8 -8 -8 -8 -8 -8 -8 -8 -8
1 0 -0 -1 -1 -1 -2 -2 -3 -3 -3 -4 -4 -4 -5 -5 -5 -6 -6 -6 -6 -7 -7 -7 -7 -7 -8 -8 -8 -8 -8 -8 -8 -8 -9 -9 -9 -9 -9 -9 -8 -8 -8
0 -0 -1 -1 -2 -2 -2 -3 -3 -3 -4 -4 -4 -5 -5 -5 -6 -6 -6 -6 -7 -7 -7 -8 -8 -8 -8 -8 -8 -9 -9 -9 -9 -9 -9 -9 -9 -9 -9 -9 -9 -9 -8
-0 -1 -1 -2 -2 -2 -3 -3 -3 -4 -4 -4 -5 -5 -5 -6 -6 -6 -6 -7 -7 -7 -8 -8 -8 -8 -8 -8 -9 -9 -9 -9 -9 -9 -9 -9 -9 -9 -9 -9 -9 -9 -9
-1 -1 -2 -2 -2 -3 -3 -3 -4 -4 -4 -5 -5 -5 -6 -6 -6 -7 -7 -7 -7 -8 -8 -8 -8 -8 -9 -9 -9 -9 -9 -9 -9 -9 -9 -9 -9 -9 -9 -9 -9 -9 -9
-1 -1 -2 -2 -2 -3 -3 -4 -4 -4 -5 -5 -5 -6 -6 -6 -7 -7 -7 -7 -8 -8 -8 -8 -8 -9 -9 -9 -9 -9 -9 -9 -9 -9 -9 -9 -9 -9 -9 -9 -9 -9 -9
-1 -2 -2 -2 -3 -3 -3 -4 -4 -5 -5 -5 -6 -6 -6 -7 -7 -7 -7 -7 -8 -8 -8 -8 -9 -9 -9 -9 -9 -9 -9 -9 -10 -10 -9 -9 -9 -9 -9 -9 -9 -9 -9
-2 -2 -2 -3 -3 -3 -4 -4 -4 -5 -5 -6 -6 -6 -7 -7 -7 -7 -7 -8 -8 -8 -8 -9 -9 -9 -9 -9 -9 -9 -10 -10 -10 -10 -9 -9 -9 -9 -9 -9 -9 -9 -9
-2 -3 -3 -3 -4 -4 -4 -4 -5 -5 -6 -6 -6 -6 -7 -7 -7 -7 -8 -8 -8 -8 -8 -9 -9 -9 -9 -9 -9 -9 -9 -9 -9 -9 -9 -9 -9 -9 -10 -9 -9 -9 -9
-2 -3 -3 -4 -4 -4 -5 -5 -5 -5 -6 -6 -6 -7 -7 -7 -7 -8 -8 -8 -8 -8 -9 -9 -9 -9 -9 -9 -9 -9 -9 -9 -9 -9 -9 -9 -9 -9 -9 -9 -9 -9 -9
Wind_Speed
3 3 3 4 4 4 4 4 4 5 5 6 6 6 6 6 6 5 5 5 4 4 3 3 3 3 2 2 2 2 2 3 6 4 2 2 3 4 5 6 6 6 7
2 2 3 3 4 4 4 5 5 5 5 5 5 6 6 6 6 6 6 6 5 5 5 4 4 3 3 3 2 2 2 2 4 5 3 3 3 4 5 6 6 7 7
1 1 2 3 3 4 4 4 5 5 5 6 6 6 6 6 6 6 5 5 5 5 5 4 4 4 3 3 3 3 3 3 2 3 4 3 3 4 5 5 6 5 7
0 0 1 2 3 3 3 4 4 5 5 5 6 5 5 5 5 6 5 5 5 5 5 4 4 4 3 3 3 3 3 3 3 3 4 3 3 4 4 5 6 5 7
1 1 1 1 2 2 3 3 4 4 5 5 5 6 6 5 5 5 5 4 5 5 6 5 5 6 6 5 3 3 3 3 3 3 4 4 4 4 5 5 7 7 6
2 2 1 0 1 2 2 3 3 4 4 5 5 5 6 5 8 9 6 5 5 5 5 5 5 6 7 8 8 7 6 4 4 4 4 5 6 5 5 6 6 6 6
3 2 1 1 0 1 2 2 3 3 4 4 5 5 6 7 10 9 9 5 5 5 5 5 5 6 7 5 6 7 7 8 7 4 5 6 6 7 7 7 7 7 8
3 3 2 2 1 0 1 2 2 2 3 3 4 5 5 7 10 9 8 5 4 5 5 5 5 5 6 5 4 5 5 5 6 4 4 5 6 6 6 7 8 8 7
4 4 3 3 2 1 0 1 1 1 2 2 3 4 5 6 9 9 7 3 4 5 6 6 6 5 8 9 5 5 5 5 7 9 9 9 11 11 9 6 6 6 7
6 5 4 3 3 2 2 1 0 1 1 2 3 3 4 5 8 9 7 2 3 4 5 6 8 9 10 9 5 4 5 6 6 7 7 8 8 8 10 5 5 6 6
5 4 4 4 4 3 2 1 1 1 1 2 2 3 4 5 7 8 8 3 3 4 4 5 6 11 11 11 8 4 6 7 5 6 6 6 5 5 5 5 4 5 6
5 4 4 4 3 3 3 2 2 1 1 1 2 3 2 4 6 7 8 7 6 3 4 4 5 10 11 10 8 8 10 9 5 5 6 6 6 6 6 6 7 7 7
5 5 4 4 3 3 3 3 2 1 1 1 1 2 2 3 4 7 7 8 8 4 4 7 8 10 9 7 9 11 9 5 5 5 6 6 6 7 7 7 7 7 8
6 5 5 5 4 3 3 3 3 3 2 2 2 2 2 3 3 4 3 4 6 5 4 5 8 8 7 7 8 7 5 5 5 5 6 7 6 6 6 6 7 7 7
6 5 5 5 4 4 3 3 3 3 4 3 3 2 2 3 4 6 5 3 3 4 4 2 3 4 5 5 5 5 5 6 6 6 6 7 7 7 7 6 6 6 6
6 5 5 4 4 4 3 2 3 4 4 4 3 2 3 4 6 7 7 7 7 7 4 3 3 4 5 6 6 6 6 6 6 6 6 7 7 8 8 7 6 6 7
7 6 5 5 5 4 4 3 2 2 2 2 3 3 3 4 5 6 7 7 6 6 3 3 3 4 4 5 5 6 6 6 6 6 6 7 7 7 8 8 8 7 8
6 6 6 5 5 5 4 4 3 3 2 2 3 4 4 4 5 5 6 4 3 3 2 3 3 4 4 5 5 6 6 7 6 6 7 7 7 7 8 8 8 8 9
6 5 5 4 4 4 4 4 3 3 3 2 1 2 3 4 4 4 3 2 2 3 3 3 4 4 5 5 6 6 6 7 7 7 7 7 7 7 8 8 9 12 10
5 7 6 5 4 4 4 4 3 3 3 3 2 2 1 1 1 2 2 2 3 3 3 4 4 5 5 5 6 6 7 7 7 7 7 7 7 7 8 10 9 9 9
4 5 8 5 4 5 4 4 4 3 3 3 3 3 3 1 2 2 2 3 3 3 4 4 5 5 5 5 5 6 8 7 7 7 7 8 8 8 8 9 9 9 9
5 4 4 5 4 4 4 4 4 4 4 3 2 3 4 2 2 2 3 3 3 3 4 4 5 5 5 5 6 6 7 8 7 7 8 8 8 8 9 9 9 9 9
5 5 4 4 4 6 5 4 4 4 4 3 3 2 2 2 3 3 3 3 3 4 4 4 5 5 6 7 7 6 7 8 8 8 9 9 9 8 8 9 10 11 9
5 6 5 5 4 4 4 4 4 4 4 4 3 3 3 3 3 3 3 3 4 4 5 5 6 7 9 9 9 10 10 11 12 10 10 10 10 9 9 9 10 10 9
5 5 5 5 5 5 4 4 4 4 4 4 3 3 3 3 3 3 3 3 4 5 6 7 7 7 10 11 12 12 15 17 16 13 10 8 9 9 9 9 9 9 8
5 5 5 5 5 4 4 4 4 4 4 4 3 3 3 3 4 4 3 4 4 5 6 6 8 10 12 12 13 15 17 17 17 16 12 7 7 8 8 8 9 8 8
Wind_Direction
333 333 339 338 341 351 353 348 347 348 352 356 358 2 6 7 6 4 1 355 354 346 345 346 333 329 326 329 323 317 299 280 271 283 296 317 322 324 321 321 310 300 299
314 341 343 341 350 358 357 353 356 360 1 3 8 11 12 10 10 11 8 6 4 3 1 6 1 4 2 356 355 343 319 306 282 285 297 310 305 316 310 310 314 312 302
309 343 346 350 353 353 353 357 4 6 8 10 16 17 15 13 15 14 16 17 15 11 9 12 7 14 7 358 358 347 329 325 307 293 298 300 296 311 311 308 305 299 306
242 346 343 338 339 346 356 6 10 13 15 12 13 13 11 12 17 16 15 20 21 17 15 17 15 13 359 353 356 344 332 325 319 308 302 301 297 302 309 309 311 307 305
186 221 284 317 335 353 9 12 14 20 20 14 14 12 8 10 16 19 14 23 26 23 20 16 13 17 11 6 357 340 333 322 316 309 306 308 308 316 316 312 306 309 298
196 223 249 305 3 9 10 15 20 21 19 21 19 12 8 10 17 24 29 28 26 26 16 6 8 11 10 7 2 356 348 328 313 303 300 304 305 304 305 306 303 308 298
206 217 217 205 354 354 12 28 22 15 19 21 15 15 9 6 16 23 33 33 26 17 8 2 360 357 358 344 348 354 354 351 339 311 300 300 302 305 301 298 294 290 285
206 216 209 193 212 317 30 20 8 12 19 15 12 9 5 4 13 21 29 32 23 10 1 354 348 342 342 339 342 345 342 340 335 332 304 299 302 302 292 289 289 291 284
211 216 211 195 193 182 197 345 359 21 16 9 6 7 2 352 5 15 25 19 14 3 356 354 349 338 340 345 347 336 331 329 339 342 335 330 327 326 323 312 308 304 299
216 212 202 188 184 193 204 192 93 70 16 4 5 1 353 343 357 9 18 26 7 353 350 350 354 351 347 352 352 340 333 326 331 334 336 333 329 328 334 325 303 297 297
202 191 188 187 189 190 177 154 135 99 48 16 2 351 344 345 353 2 7 13 355 348 348 347 345 351 354 356 357 350 333 334 337 332 328 326 324 322 321 314 300 287 285
179 183 187 187 190 176 165 162 143 128 83 2 352 339 332 333 348 352 359 0 358 353 339 331 335 347 352 356 356 348 347 349 340 332 332 331 329 324 317 310 300 287 273
175 185 187 181 182 174 174 174 161 156 166 253 295 309 318 324 334 349 354 354 355 352 331 334 341 350 355 358 357 356 356 349 336 334 330 322 313 305 305 305 303 297 289
183 188 183 180 183 181 184 185 180 189 200 226 254 279 301 317 319 322 327 335 341 338 333 341 349 355 359 356 356 354 349 339 337 328 319 314 312 312 313 313 312 315 309
185 187 184 186 185 185 193 199 197 205 200 212 229 242 269 296 311 325 332 327 323 318 335 351 348 347 350 347 343 343 342 340 337 328 323 322 321 321 317 315 309 310 303
187 189 186 184 186 187 191 216 228 216 229 238 247 258 274 294 315 327 331 332 335 337 350 346 340 341 339 338 337 335 334 334 332 326 323 321 322 320 318 317 312 307 303
189 187 183 185 187 187 189 194 213 239 240 249 268 287 299 310 317 323 329 333 336 347 355 335 329 330 330 330 328 325 323 323 322 321 319 319 318 316 316 316 315 310 304
186 189 187 187 187 188 191 195 196 200 225 262 275 284 297 307 314 321 330 340 342 350 336 323 319 319 320 319 317 315 314 316 317 316 315 313 313 311 312 312 311 306 303
184 186 184 182 184 186 187 188 193 202 215 232 264 285 296 306 310 322 339 345 316 315 315 311 309 308 308 308 307 306 306 307 307 309 308 307 307 307 307 306 307 308 306
188 190 182 179 179 182 185 190 196 204 214 223 236 255 285 305 306 315 323 313 303 302 304 304 304 303 303 301 301 302 304 303 305 304 305 305 305 302 302 305 307 307 303
180 186 185 181 185 187 189 195 197 202 214 225 236 250 260 247 264 281 290 293 294 296 299 298 297 297 297 297 296 297 299 299 299 300 302 303 303 303 302 302 302 302 302
178 182 182 185 185 187 191 193 195 204 214 224 239 257 263 249 255 270 279 288 290 288 289 290 289 288 288 290 292 294 296 297 298 299 300 299 299 300 302 304 306 306 305
176 178 182 185 184 196 196 189 195 205 213 217 226 236 248 250 260 268 275 282 286 287 290 287 287 289 290 289 286 283 286 290 293 295 297 298 299 301 302 302 304 306 306
178 180 184 186 184 186 189 194 199 207 212 218 224 232 238 246 258 268 275 280 283 284 287 288 285 287 291 296 293 288 284 286 288 286 285 288 294 297 299 301 303 304 305
180 182 186 188 189 192 194 198 203 210 215 221 224 231 239 249 259 266 271 276 281 285 289 292 290 292 294 295 296 296 298 302 302 298 290 289 290 293 297 301 304 306 307
182 185 186 186 190 192 195 201 207 212 218 225 227 231 238 248 257 264 271 275 283 287 289 293 293 297 299 300 300 304 308 311 312 313 309 298 297 300 303 303 305 308 309
Height
1475 1473 1472 1470 1469 1467 1466 1464 1463 1462 1460 1459 1457 1456 1454 1452 1451 1449 1448 1447 1446 1446 1445 1445 1444 1444 1444 1444 1444 1445 1445 1445 1443 1442 1443 1442 1442 1442 1441 1441 1440 1440 1439
1474 1472 1470 1469 1467 1466 1464 1463 1461 1460 1459 1457 1455 1454 1452 1450 1448 1447 1445 1444 1443 1443 1442 1441 1441 1441 1440 1440 1440 1440 1440 1439 1439 1437 1436 1436 1435 1435 1434 1433 1433 1432 1431
1472 1470 1469 1467 1466 1464 1463 1461 1460 1459 1457 1455 1454 1452 1450 1448 1447 1445 1444 1442 1441 1440 1440 1439 1438 1438 1437 1437 1436 1435 1435 1434 1434 1432 1430 1430 1429 1429 1428 1427 1426 1425 1424
1470 1469 1467 1466 1464 1463 1461 1460 1459 1457 1456 1454 1452 1451 1449 1447 1445 1444 1442 1441 1439 1438 1437 1436 1436 1435 1434 1433 1433 1432 1431 1430 1429 1428 1426 1425 1424 1423 1421 1420 1418 1417 1416
1467 1466 1465 1464 1463 1461 1460 1459 1458 1456 1455 1453 1451 1449 1448 1446 1444 1442 1441 1439 1438 1436 1436 1435 1433 1432 1432 1431 1430 1429 1428 1426 1425 1423 1422 1420 1419 1417 1416 1414 1412 1410 1409
1465 1464 1464 1462 1461 1460 1459 1458 1456 1455 1453 1452 1450 1448 1446 1444 1443 1441 1440 1438 1436 1435 1434 1432 1431 1430 1429 1428 1427 1426 1424 1423 1421 1419 1418 1416 1414 1413 1411 1409 1407 1404 1402
1463 1462 1462 1461 1460 1459 1458 1456 1455 1454 1452 1451 1449 1447 1445 1443 1442 1440 1439 1437 1435 1434 1432 1431 1429 1428 1427 1425 1423 1422 1421 1419 1418 1416 1414 1412 1410 1408 1407 1404 1402 1400 1397
1460 1460 1459 1458 1458 1457 1456 1455 1453 1452 1451 1449 1448 1446 1444 1442 1441 1439 1437 1436 1434 1432 1430 1429 1427 1425 1424 1422 1420 1419 1417 1415 1414 1412 1410 1408 1406 1404 1402 1400 1397 1394 1391
1457 1457 1457 1456 1455 1455 1454 1453 1452 1451 1449 1448 1446 1445 1443 1441 1439 1438 1436 1434 1432 1430 1428 1426 1425 1423 1421 1420 1418 1416 1414 1411 1410 1408 1406 1404 1401 1399 1397 1395 1392 1389 1384
1454 1454 1454 1453 1453 1452 1452 1451 1450 1449 1448 1446 1445 1443 1442 1440 1438 1436 1434 1432 1430 1428 1426 1424 1422 1421 1419 1417 1415 1413 1410 1408 1405 1403 1401 1399 1397 1394 1392 1390 1387 1385 1381
1451 1451 1451 1451 1450 1450 1449 1449 1448 1447 1446 1444 1443 1442 1440 1438 1436 1434 1433 1431 1429 1426 1424 1422 1420 1419 1417 1415 1412 1410 1407 1405 1402 1399 1397 1394 1392 1390 1387 1385 1383 1381 1377
1447 1447 1448 1448 1447 1447 1447 1446 1445 1444 1443 1442 1441 1440 1438 1436 1435 1433 1431 1429 1427 1425 1423 1420 1418 1416 1414 1412 1409 1407 1404 1402 1399 1396 1393 1390 1388 1385 1383 1381 1378 1376 1373
1443 1444 1444 1444 1444 1444 1444 1443 1443 1442 1441 1440 1439 1437 1436 1434 1432 1431 1429 1427 1425 1423 1421 1419 1416 1414 1412 1409 1407 1404 1401 1398 1395 1392 1389 1387 1384 1381 1378 1375 1373 1371 1368
1439 1440 1440 1440 1441 1441 1440 1440 1440 1439 1438 1437 1436 1435 1433 1432 1430 1428 1426 1424 1423 1421 1419 1416 1414 1412 1410 1407 1404 1401 1398 1396 1393 1390 1386 1383 1380 1377 1374 1371 1368 1365 1362
1435 1436 1436 1436 1437 1437 1437 1437 1436 1436 1435 1434 1433 1432 1430 1429 1428 1426 1424 1422 1420 1418 1416 1414 1412 1409 1407 1404 1402 1399 1396 1393 1390 1387 1383 1380 1377 1374 1371 1368 1364 1361 1358
1430 1431 1432 1432 1433 1433 1433 1433 1432 1432 1432 1431 1430 1429 1427 1427 1425 1423 1422 1420 1418 1416 1414 1412 1409 1407 1405 1402 1399 1396 1393 1390 1387 1384 1381 1377 1374 1370 1367 1364 1361 1358 1354
1426 1427 1427 1428 1428 1428 1429 1429 1429 1429 1428 1428 1427 1426 1425 1424 1422 1421 1419 1418 1416 1414 1412 1409 1407 1405 1402 1400 1397 1394 1391 1388 1385 1381 1378 1375 1371 1368 1364 1361 1357 1354 1350
1422 1423 1423 1423 1424 1424 1425 1425 1425 1425 1424 1424 1423 1422 1421 1420 1419 1418 1416 1415 1413 1411 1409 1407 1405 1403 1400 1397 1395 1392 1389 1385 1382 1379 1375 1372 1368 1365 1361 1357 1354 1350 1346
1417 1418 1419 1419 1420 1420 1420 1420 1420 1420 1420 1420 1419 1419 1418 1417 1416 1415 1413 1412 1410 1408 1406 1404 1402 1400 1398 1395 1392 1389 1386 1383 1380 1376 1373 1369 1366 1362 1358 1354 1350 1347 1343
1413 1414 1415 1415 1416 1416 1416 1417 1417 1416 1416 1416 1416 1415 1414 1414 1413 1412 1410 1409 1407 1405 1403 1401 1399 1397 1395 1392 1389 1386 1383 1380 1377 1373 1370 1366 1362 1359 1355 1351 1347 1343 1339
1409 1410 1410 1411 1412 1412 1412 1413 1413 1413 1412 1412 1412 1412 1411 1410 1409 1408 1407 1405 1404 1402 1400 1398 1396 1394 1391 1389 1386 1383 1380 1377 1373 1370 1366 1363 1359 1355 1352 1348 1344 1340 1336
1404 1405 1406 1407 1407 1408 1408 1409 1409 1409 1408 1408 1408 1408 1408 1407 1406 1405 1404 1402 1401 1399 1397 1395 1393 1390 1388 1385 1382 1379 1376 1373 1370 1367 1363 1359 1356 1352 1349 1345 1341 1337 1332
1400 1401 1402 1403 1403 1404 1404 1405 1405 1405 1405 1405 1404 1404 1404 1403 1402 1402 1400 1399 1397 1396 1394 1392 1389 1387 1385 1382 1379 1376 1373 1370 1367 1364 1360 1356 1353 1349 1346 1342 1338 1334 1330
1396 1397 1398 1399 1399 1400 1400 1400 1401 1401 1401 1401 1401 1400 1400 1400 1399 1398 1397 1395 1394 1392 1390 1388 1386 1384 1381 1379 1376 1373 1370 1367 1364 1361 1357 1354 1350 1346 1343 1339 1335 1332 1328
1392 1393 1394 1394 1395 1396 1396 1396 1397 1397 1397 1397 1397 1397 1396 1396 1395 1394 1393 1392 1390 1388 1387 1385 1382 1380 1378 1375 1372 1370 1367 1364 1361 1358 1354 1351 1348 1344 1341 1337 1333 1330 1327
1388 1389 1390 1390 1391 1392 1392 1392 1393 1393 1393 1393 1393 1393 1393 1392 1391 1390 1389 1388 1386 1385 1383 1381 1379 1377 1374 1372 1369 1366 1364 1361 1358 1355 1352 1348 1345 1342 1339 1335 1332 1329 1325